Preview of NWS' New Version of Forecast
This preview is not operational and should not be used for support decisions.

Regional Weather Roundup (RWR)

Issued by National Weather Service (NWS)

                            
000
ASUS43 KDTX 191001
RWRMI 
MICHIGAN HOURLY REGIONAL WEATHER ROUNDUP
NATIONAL WEATHER SERVICE DETROIT/PONTIAC MI
600 AM EDT FRI APR 19 2019

NOTE: "FAIR" INDICATES FEW OR NO CLOUDS BELOW 12,000 FEET WITH NO
SIGNIFICANT WEATHER AND/OR OBSTRUCTION TO VISIBILITY.

MIZ047>049-052>055-059>063-066>070-074>076-081>083-191100-
SOUTHEAST LOWER MICHIGAN
  
CITY           SKY/WX    TMP DP  RH WIND       PRES   REMARKS
ADRIAN         LGT RAIN  41  38  89 N10       29.65R                  
ALMA           CLOUDY    42  39  88 N12       29.70F                  
ANN ARBOR      LGT RAIN  41  40  96 NW7       29.64R FOG              
BAD AXE        LGT RAIN  37  37  97 N14G21    29.68R WCI  29          
CARO           LGT RAIN  38  37  95 N12       29.67S WCI  31          
DETROIT CITY   RAIN      44  41  89 N13       29.62S FOG              
DETROIT        RAIN      43  40  89 N10       29.62S FOG              
FLINT          LGT RAIN  41  39  93 N10       29.67S                  
GROSSE ILE     MIX PCPN  44  43  96 N10       29.61R                  
HILLSDALE      RAIN      40  37  90 N9        29.64R WCI  34          
HOWELL         MIX PCPN  40  38  93 N5        29.65F                  

CITY           SKY/WX    TMP DP  RH WIND       PRES   REMARKS
JACKSON        LGT RAIN  40  39  97 N7        29.65F                  
LAMBERTVILLE   RAIN      42  42 100 NW8       29.64R                  
LANSING        LGT RAIN  40  38  93 N8        29.68F WCI  34          
LAPEER         LGT RAIN  41  40  96 N8G16     29.67R                  
MASON          LGT RAIN  40  38  93 N8        29.66F WCI  35          
MONROE         RAIN      44  43  97 NW10      29.62F                  
PONTIAC        LGT RAIN  41  40  96 N8        29.63R                  
PORT HOPE        N/A     38  37  97 N12G20    29.68R WCI  30          
PORT HURON     LGT RAIN  43  39  87 N6        29.62F                  
TRI CITIES     CLOUDY    41  39  93 N18       29.70R                  
MIDLAND        CLOUDY    41  37  86 N6        29.71R                  
TROY           LGT RAIN  43  39  87 NW6       29.65S                  
SAGINAW HB     LGT RAIN  43  41  93 N14       29.70R                  
$$
MIZ043>046-050>051-056>058-064>065-071>073-077>080-191100-
SOUTHWEST LOWER MICHIGAN
  
CITY           SKY/WX    TMP DP  RH WIND       PRES   REMARKS
BATTLE CREEK   LGT RAIN  39  37  92 N8        29.66F WCI  33          
BENTON HARBOR  CLOUDY    39  36  89 VRB7      29.68F WCI  34          
BIG RAPIDS     CLOUDY    39  36  87 N8        29.72F WCI  34          
COLDWATER      LGT RAIN  41  40  98 N8        29.64F                  
FREMONT        CLOUDY    40  36  84 NE10G16   29.72F WCI  34          
HOLLAND        CLOUDY    41  36  82 NE7       29.69F                  
GRAND RAPIDS   CLOUDY    40  36  86 N9        29.68F WCI  34          
IONIA          DRIZZLE   40  36  87 N12       29.67F WCI  33          
KALAMAZOO      LGT RAIN  40  37  89 N8        29.66F WCI  34          
LUDINGTON      CLOUDY    40  36  87 N10       29.76F WCI  33          
MARSHALL       LGT RAIN  40  40 100 N3        29.65F                  
MOUNT PLEASANT CLOUDY    40  38  89 N13G22    29.71S WCI  33          
MUSKEGON       CLOUDY    42  34  73 N14G24    29.72F                  
SOUTH HAVEN    CLOUDY    40  37  91 N5        29.68F                  
$$
MIZ016>042-191100-
NORTHERN LOWER MICHIGAN
  
CITY           SKY/WX    TMP DP  RH WIND       PRES   REMARKS
ALPENA         CLOUDY    38  32  79 N13       29.76R HAZE    WCI  30  
BEAVER ISLAND  FAIR      36  32  87 N8        29.83S WCI  29          
BELLAIRE       CLOUDY    39  35  87 N7        29.80R WCI  34          
CADILLAC       CLOUDY    38  37  94 NE13G20   29.72S WCI  30          
CHARLEVOIX     MOCLDY    36  34  93 N9        29.84R WCI  29          
FRANKFORT      MOCLDY    42  34  75 N5        29.80R                  
HARBOR SPRINGS FAIR      38  35  89 N7        29.80R WCI  32          
HOUGHTON LAKE  CLOUDY    37  34  89 N13       29.74R WCI  29          
MANISTEE       CLOUDY    40  36  86 N12G23    29.77S WCI  33          
OSCODA         MIX PCPN  37  37 100 N15       29.73R WCI  28          
PELLSTON       CLOUDY    38  34  85 N12       29.81S WCI  30          
ROGERS CITY    CLOUDY    36  35  95 N9        29.79S WCI  29          
TRAVERSE CITY  CLOUDY    39  35  86 N10       29.78R WCI  32          
$$
MIZ007>008-015-191100-
EASTERN UPPER MICHIGAN
  
CITY           SKY/WX    TMP DP  RH WIND       PRES   REMARKS
KINROSS        CLOUDY    36  33  89 N7        29.82S WCI  30          
MACKINAC ISLAN CLOUDY    36  36 100 N9G16     29.81R WCI  29          
NEWBERRY       FAIR      34  32  93 N7        29.84R WCI  28          
S. S. MARIE    FAIR      39  32  76 N5        29.81S                  
MUNISING         N/A     35  31  85 NW13      29.89R WCI  26          
$$
MIZ004>006-011>014-085-191100-
CENTRAL UPPER MICHIGAN
  
CITY           SKY/WX    TMP DP  RH WIND       PRES   REMARKS
MANISTIQUE     FAIR      36  31  82 N9        29.85R WCI  29          
ESCANABA       FAIR      37  31  78 N6        29.88S WCI  32          
MENOMINEE      FAIR      38  32  79 N10       29.89R WCI  31          
SAWYER-GWINN   FAIR      34  31  86 N9        29.88S WCI  27          
$$
MIZ001>003-009>011-084-191100-
WESTERN UPPER MICHIGAN
  
CITY           SKY/WX    TMP DP  RH WIND       PRES   REMARKS
IRON MOUNTAIN  FAIR      32  28  85 NW5       29.89R WCI  27          
HOUGHTON       FAIR      32  29  88 NW12      29.92S WCI  23          
COPPER HARBOR    N/A     32  29  88 W5        29.93R WCI  27          
IRONWOOD       FAIR      25  25 100 SW3       29.97R                  
$$

ABBREVIATIONS USED IN REMARKS
   TC - TEMPERATURE IN CELSIUS
  WCI - WIND CHILL INDEX
   HX - HEAT INDEX
  VSB - VISIBILITY